Weather History for KVNC - October, 2012

Change the Weather History Date:

Thursday, October 4, 2012

  Actual Average Record
Temperature  
Mean Temperature 81 °F -  
Max Temperature 89 °F 87 °F 92 °F (1971)
Min Temperature 73 °F 69 °F 57 °F (1974)
Cooling Degree Days 16    
Growing Degree Days 31 (Base 50)    
Moisture  
Dew Point 73 °F    
Average Humidity 87    
Maximum Humidity 100    
Minimum Humidity 59    
Precipitation  
Precipitation 0.09 in - - ()
Sea Level Pressure  
Sea Level Pressure 30.14 in    
Wind  
Wind Speed 9 mph (ENE)    
Max Wind Speed 20 mph    
Max Gust Speed 29 mph    
Visibility 10 miles    
Events Rain , Thunderstorm    
Averages and records for this station are not official NWS values.
T = Trace of Precipitation, MM = Missing Value Source: NWS Daily Summary

Daily Weather History Graph

Daily Weather History Graph

Search for Another Location

Airport or City:

Trip Planner

Search our weather history database for the weather conditions in past years. The results will help you decide how hot, cold, wet, or windy it might be!

Date:

Astronomy

Oct. 04, 2012 Rise Set
Actual Time 7:24 AM EDT 7:12 PM EDT
Civil Twilight 7:00 AM EDT 7:35 PM EDT
Nautical Twilight 6:33 AM EDT 8:02 PM EDT
Astronomical Twilight 6:06 AM EDT 8:29 PM EDT
Moon 10:11 PM EDT (10/4) 11:16 AM EDT (10/4)
Length of Visible Light 12h 34m
Length of Day
11h 48m
Waning Gibbous, 82% of the Moon is Illuminated
Oct 4
Waning Gibbous
Oct 8
Last Quarter
Oct 15
New
Oct 21
First Quarter
Oct 29
Full

Hourly Weather History & Observations

Time (EDT) Temp. Heat Index Dew Point Humidity Pressure Visibility Wind Dir Wind Speed Gust Speed Precip Events Conditions
12:15 AM 75.2 °F - 73.4 °F 94% 30.16 in 10.0 mi East 9.2 mph - N/A   Clear
12:35 AM 75.2 °F - 73.4 °F 94% 30.16 in 10.0 mi East 10.4 mph - N/A   Clear
12:55 AM 75.2 °F - 73.4 °F 94% 30.16 in 10.0 mi East 10.4 mph - N/A   Clear
1:15 AM 75.2 °F - 73.4 °F 94% 30.16 in 10.0 mi East 10.4 mph - N/A   Clear
1:35 AM 75.2 °F - 73.4 °F 94% 30.15 in 10.0 mi East 10.4 mph - N/A   Clear
1:55 AM 75.2 °F - 73.4 °F 94% 30.14 in 10.0 mi East 9.2 mph - N/A   Clear
2:15 AM 75.2 °F - 73.4 °F 94% 30.13 in 10.0 mi East 8.1 mph - N/A   Clear
2:35 AM 75.2 °F - 73.4 °F 94% 30.13 in 10.0 mi ENE 9.2 mph - N/A   Clear
2:55 AM 75.2 °F - 73.4 °F 94% 30.13 in 10.0 mi ENE 6.9 mph - N/A   Clear
3:15 AM 75.2 °F - 73.4 °F 94% 30.12 in 10.0 mi ENE 8.1 mph - N/A   Clear
3:35 AM 73.4 °F - 73.4 °F 100% 30.11 in 10.0 mi NE 6.9 mph - N/A   Clear
3:55 AM 73.4 °F - 73.4 °F 100% 30.11 in 10.0 mi ENE 8.1 mph - N/A   Clear
4:15 AM 73.4 °F - 73.4 °F 100% 30.12 in 10.0 mi ENE 6.9 mph - N/A   Clear
4:35 AM 73.4 °F - 73.4 °F 100% 30.12 in 10.0 mi ENE 6.9 mph - N/A   Clear
4:55 AM 73.4 °F - 73.4 °F 100% 30.12 in 10.0 mi East 8.1 mph - N/A   Clear
5:15 AM 75.2 °F - 73.4 °F 94% 30.12 in 10.0 mi ENE 8.1 mph - N/A   Clear
5:35 AM 73.4 °F - 71.6 °F 94% 30.13 in 10.0 mi NE 6.9 mph - N/A   Clear
5:55 AM 73.4 °F - 71.6 °F 94% 30.13 in 10.0 mi ENE 6.9 mph - N/A   Clear
6:15 AM 73.4 °F - 71.6 °F 94% 30.14 in 10.0 mi ENE 5.8 mph - N/A   Clear
6:35 AM 73.4 °F - 71.6 °F 94% 30.15 in 10.0 mi North 4.6 mph - N/A   Clear
6:55 AM 73.4 °F - 71.6 °F 94% 30.16 in 10.0 mi NE 4.6 mph - N/A   Clear
7:15 AM 73.4 °F - 71.6 °F 94% 30.16 in 10.0 mi NE 5.8 mph - N/A   Clear
7:35 AM 73.4 °F - 73.4 °F 100% 30.16 in 10.0 mi NE 5.8 mph - N/A   Clear
7:55 AM 73.4 °F - 73.4 °F 100% 30.16 in 10.0 mi ENE 6.9 mph - N/A   Clear
8:15 AM 75.2 °F - 73.4 °F 94% 30.16 in 10.0 mi NE 8.1 mph - N/A   Clear
8:35 AM 75.2 °F - 73.4 °F 94% 30.17 in 10.0 mi NE 6.9 mph - N/A   Clear
8:55 AM 77.0 °F - 75.2 °F 94% 30.17 in 10.0 mi ENE 4.6 mph - N/A   Clear
9:15 AM 80.6 °F 86.2 °F 75.2 °F 84% 30.17 in 9.0 mi ENE 8.1 mph - N/A   Clear
9:35 AM 80.6 °F 87.1 °F 77.0 °F 89% 30.17 in 10.0 mi East 11.5 mph - N/A   Clear
9:55 AM 82.4 °F 90.9 °F 77.0 °F 84% 30.17 in 10.0 mi ENE 8.1 mph - N/A   Scattered Clouds
10:15 AM 82.4 °F 90.9 °F 77.0 °F 84% 30.17 in 10.0 mi ENE 6.9 mph - N/A   Mostly Cloudy
10:35 AM 84.2 °F 94.1 °F 77.0 °F 79% 30.17 in 10.0 mi East 3.5 mph - N/A   Mostly Cloudy
10:55 AM 86.0 °F 96.9 °F 77.0 °F 74% 30.17 in 10.0 mi East 9.2 mph - N/A   Scattered Clouds
11:15 AM 86.0 °F 95.1 °F 75.2 °F 70% 30.17 in 10.0 mi East 10.4 mph - N/A   Scattered Clouds
11:35 AM 87.8 °F 97.6 °F 75.2 °F 66% 30.17 in 10.0 mi SE 9.2 mph - N/A   Partly Cloudy
11:55 AM 86.0 °F 95.1 °F 75.2 °F 70% 30.17 in 10.0 mi ESE 6.9 mph - N/A   Scattered Clouds
12:15 PM 89.6 °F 99.8 °F 75.2 °F 62% 30.16 in 10.0 mi SE 6.9 mph - N/A   Scattered Clouds
12:35 PM 89.6 °F 98.2 °F 73.4 °F 59% 30.16 in 10.0 mi SE 6.9 mph 16.1 mph N/A   Scattered Clouds
12:55 PM 87.8 °F 99.7 °F 77.0 °F 70% 30.15 in 10.0 mi SW 5.8 mph - N/A   Scattered Clouds
1:15 PM 86.0 °F 96.9 °F 77.0 °F 74% 30.15 in 10.0 mi SW 9.2 mph - N/A   Mostly Cloudy
1:35 PM 87.8 °F 99.7 °F 77.0 °F 70% 30.14 in 10.0 mi SW 10.4 mph - N/A   Scattered Clouds
1:55 PM 87.8 °F 102.5 °F 78.8 °F 75% 30.12 in 10.0 mi WSW 9.2 mph - N/A   Clear
2:35 PM 86.0 °F 96.9 °F 77.0 °F 74% 30.11 in 10.0 mi WSW 11.5 mph - N/A Thunderstorm Clear
2:55 PM 86.0 °F 96.9 °F 77.0 °F 74% 30.10 in 10.0 mi West 10.4 mph - N/A Thunderstorm Thunderstorm
3:15 PM 86.0 °F 96.9 °F 77.0 °F 74% 30.09 in 10.0 mi West 9.2 mph - N/A Thunderstorm Thunderstorm
3:35 PM 84.2 °F 89.6 °F 71.6 °F 66% 30.12 in 10.0 mi East 12.7 mph 20.7 mph N/A Thunderstorm Thunderstorm
3:55 PM 77.0 °F - 66.2 °F 69% 30.10 in 10.0 mi East 18.4 mph 28.8 mph N/A Thunderstorm Thunderstorm
4:15 PM 73.4 °F - 68.0 °F 83% 30.11 in 1.8 mi ENE 12.7 mph - 0.09 in Rain , Thunderstorm Heavy Thunderstorms and Rain
4:35 PM 75.2 °F - 71.6 °F 89% 30.11 in 10.0 mi ENE 6.9 mph - 0.09 in Thunderstorm Mostly Cloudy
4:55 PM 75.2 °F - 71.6 °F 89% 30.12 in 10.0 mi ENE 19.6 mph 24.2 mph 0.09 in Thunderstorm Thunderstorm
5:15 PM 75.2 °F - 71.6 °F 89% 30.13 in 10.0 mi East 10.4 mph - N/A Thunderstorm Thunderstorm
5:35 PM 75.2 °F - 71.6 °F 89% 30.12 in 10.0 mi ENE 11.5 mph - N/A Thunderstorm Partly Cloudy
5:55 PM 75.2 °F - 69.8 °F 83% 30.12 in 10.0 mi NE 11.5 mph - N/A   Clear
6:15 PM 77.0 °F - 69.8 °F 78% 30.12 in 10.0 mi NE 13.8 mph - N/A   Clear
6:35 PM 77.0 °F - 71.6 °F 83% 30.11 in 10.0 mi NNE 9.2 mph - N/A Thunderstorm Clear
6:55 PM 75.2 °F - 71.6 °F 89% 30.11 in 10.0 mi NE 9.2 mph - N/A   Clear
7:15 PM 75.2 °F - 73.4 °F 94% 30.12 in 10.0 mi NE 9.2 mph - N/A   Clear
7:35 PM 75.2 °F - 71.6 °F 89% 30.11 in 10.0 mi NE 11.5 mph - N/A Thunderstorm Clear
7:55 PM 75.2 °F - 71.6 °F 89% 30.11 in 10.0 mi NE 9.2 mph - N/A   Clear
8:15 PM 75.2 °F - 71.6 °F 89% 30.12 in 10.0 mi NE 9.2 mph - N/A   Clear
8:35 PM 75.2 °F - 71.6 °F 89% 30.12 in 10.0 mi NE 9.2 mph - N/A   Clear
8:55 PM 75.2 °F - 71.6 °F 89% 30.12 in 10.0 mi NE 10.4 mph - N/A   Clear
9:15 PM 75.2 °F - 71.6 °F 89% 30.12 in 10.0 mi NE 8.1 mph - N/A   Clear
9:35 PM 73.4 °F - 71.6 °F 94% 30.12 in 10.0 mi NE 8.1 mph - N/A   Clear
9:55 PM 73.4 °F - 71.6 °F 94% 30.13 in 10.0 mi ENE 8.1 mph - N/A   Clear
10:15 PM 73.4 °F - 73.4 °F 100% 30.14 in 10.0 mi ENE 9.2 mph - N/A   Clear
10:35 PM 73.4 °F - 71.6 °F 94% 30.14 in 10.0 mi NE 8.1 mph - N/A   Clear
10:55 PM 73.4 °F - 71.6 °F 94% 30.14 in 10.0 mi NE 10.4 mph - N/A   Clear
11:15 PM 73.4 °F - 71.6 °F 94% 30.14 in 10.0 mi ENE 13.8 mph - N/A   Clear
11:35 PM 73.4 °F - 71.6 °F 94% 30.14 in 10.0 mi ENE 11.5 mph - N/A   Clear
11:55 PM 73.4 °F - 71.6 °F 94% 30.13 in 10.0 mi ENE 11.5 mph - N/A   Clear